GFSNW_sfc_thetae_000.txt.gz
Theta_e
308 308 308 309 308 306 303 291 284 299 304 289 288 284 287 291 290 293 290 290 289 287 288 286 288 290 295 298 297 294 297 290 289 292 298 300 297 295 295 292 288 289 289 290
308 308 308 308 308 306 295 287 287 299 301 280 284 286 287 289 289 289 289 288 290 292 288 284 290 293 298 299 296 294 297 291 286 290 292 298 294 297 296 293 292 289 288 289
307 308 308 308 308 306 296 289 283 290 292 293 287 285 285 285 291 288 290 289 291 290 288 290 288 289 295 297 296 302 297 291 291 287 292 295 293 296 299 294 288 289 292 294
308 308 308 308 307 306 295 288 284 290 280 283 286 285 286 284 284 289 289 287 289 288 285 287 287 290 292 294 298 294 291 291 293 295 297 298 297 297 299 297 296 293 294 295
308 308 308 308 307 305 293 289 287 290 288 286 284 285 283 285 287 288 286 285 289 289 286 288 287 289 289 289 292 290 291 288 294 293 296 297 295 299 300 300 297 297 298 297
308 308 308 308 308 303 293 295 296 292 288 284 281 283 287 286 289 290 291 290 287 286 290 294 295 296 294 293 290 288 287 289 289 290 296 295 291 297 300 300 301 299 295 298
308 308 308 308 308 305 299 297 296 288 283 283 283 287 288 288 289 287 290 290 286 290 297 298 296 295 294 293 292 292 288 287 288 288 292 285 296 302 304 301 301 301 299 301
307 308 308 308 308 308 295 296 295 291 284 286 286 288 288 288 289 288 289 291 292 294 293 287 286 288 288 293 296 293 292 288 286 285 288 293 299 301 300 298 297 301 302 302
306 307 308 308 308 308 298 296 302 294 286 283 290 287 288 284 284 285 288 293 295 292 289 288 282 280 285 286 288 298 294 292 291 289 284 285 296 304 307 304 296 303 303 302
305 306 307 308 309 308 300 296 302 297 288 291 291 287 288 292 288 284 287 289 289 292 285 281 281 282 288 282 284 287 291 294 288 288 284 294 301 305 308 294 294 304 305 305
304 306 307 307 308 308 303 297 299 297 293 293 295 297 291 292 288 284 286 287 289 289 282 285 287 286 287 285 287 286 287 287 287 288 286 288 302 304 297 299 306 307 305 304
304 306 307 307 308 308 306 295 299 302 297 294 297 298 299 298 296 289 290 291 291 291 287 288 290 287 289 288 284 292 286 291 288 290 293 296 302 300 301 299 301 308 307 308
305 306 307 308 308 308 306 300 296 299 296 291 291 293 300 302 300 298 289 293 296 294 297 293 290 286 290 285 286 288 291 295 291 290 298 295 298 300 301 301 300 305 309 308
305 306 308 308 308 307 305 300 296 299 296 288 288 298 296 302 301 298 297 295 295 294 293 292 289 287 294 288 288 288 292 294 290 291 296 295 300 299 300 301 301 301 308 310
306 307 307 307 307 306 302 298 299 299 292 285 287 294 297 301 300 299 299 295 292 291 288 288 286 291 292 292 292 290 295 292 289 288 295 294 295 299 302 300 299 301 302 308
306 307 306 306 308 307 296 292 299 302 298 288 282 292 294 297 299 298 297 296 293 292 289 288 290 292 290 286 285 292 297 298 298 296 300 298 298 301 303 301 301 302 303 308
306 306 307 307 307 297 293 292 297 302 297 290 287 285 294 299 297 295 293 294 292 292 289 287 289 290 292 288 285 292 295 297 299 301 300 296 299 297 301 302 303 303 304 307
306 306 307 307 307 302 296 299 303 301 294 294 287 284 290 298 291 291 295 290 290 290 288 289 287 288 289 284 290 293 295 296 297 300 300 299 301 300 301 303 303 303 304 306
305 307 307 301 297 294 297 309 306 298 294 286 287 284 284 298 293 293 291 292 284 289 285 287 288 285 283 289 292 294 297 296 295 298 298 299 299 299 301 300 303 303 303 306
307 302 298 290 297 308 307 299 294 292 293 292 288 293 287 295 294 291 289 291 289 283 286 291 285 283 291 293 294 294 296 297 299 295 294 296 297 298 298 300 303 305 306 307
297 293 292 298 305 298 292 287 287 289 289 294 294 294 291 297 290 289 290 285 287 282 285 287 285 285 291 294 293 294 296 299 300 300 300 298 299 298 299 300 304 305 307 306
296 298 300 297 296 290 287 282 287 287 287 293 291 294 295 294 295 288 288 284 285 281 290 286 285 289 294 294 294 295 296 296 297 299 301 300 300 300 300 302 306 307 306 307
301 296 293 288 286 283 284 283 283 284 291 293 292 289 291 292 292 288 286 283 280 289 284 285 287 292 293 294 295 297 296 297 297 297 299 304 304 301 301 300 303 306 305 306
293 288 279 282 280 283 287 286 286 291 293 291 291 289 286 294 288 289 283 284 287 280 277 282 288 291 294 295 297 296 297 297 298 297 298 299 303 305 306 302 304 306 305 305
292 287 279 282 289 290 292 292 290 291 292 290 288 288 289 282 283 287 279 279 276 282 282 286 291 294 294 296 297 298 297 298 298 299 299 299 302 303 304 306 306 303 306 306
294 289 286 290 288 289 290 290 289 292 291 292 290 284 282 280 283 283 281 281 276 281 286 290 293 295 297 298 299 299 300 300 299 300 301 302 301 301 303 305 306 307 310 312
291 287 292 290 289 289 289 290 291 292 290 285 287 282 281 285 277 281 285 283 286 287 290 292 294 295 297 300 301 301 301 301 301 301 301 301 302 302 303 303 305 306 305 309

GFSNW_sfc_thetae_003.txt.gz
Theta_e
308 308 308 308 308 306 299 289 283 297 302 288 287 281 286 291 289 291 289 289 287 286 287 286 285 287 292 296 296 291 293 288 287 290 295 298 296 292 292 287 286 287 288 291
308 308 308 308 308 306 299 289 287 296 299 281 282 285 286 289 287 288 287 287 288 289 286 283 287 288 295 296 293 291 293 287 283 285 290 293 291 293 293 291 290 288 286 291
308 308 308 308 308 306 294 291 282 286 291 290 286 284 284 284 290 288 288 287 288 287 287 289 286 287 291 294 294 300 293 288 288 285 288 292 290 293 293 293 289 289 290 291
308 308 308 308 307 306 294 287 283 288 282 282 284 282 284 283 283 288 289 285 287 286 283 286 286 289 291 292 296 293 288 282 291 292 293 295 294 294 294 292 294 291 294 293
308 308 308 308 307 304 291 286 288 292 286 288 283 283 282 284 286 286 285 285 287 287 284 286 284 288 289 288 291 289 288 282 289 291 293 293 292 295 295 296 295 295 295 294
306 308 308 308 308 303 295 295 296 290 287 285 278 279 285 285 288 289 290 289 286 285 288 292 292 293 294 293 289 287 285 285 284 285 293 291 288 293 294 296 297 297 292 296
305 306 307 308 308 306 300 297 296 289 283 285 284 286 287 286 287 285 289 290 285 289 295 295 294 294 294 293 292 291 286 284 284 281 288 281 292 298 298 298 298 298 296 299
304 305 307 308 308 307 300 298 296 290 284 286 287 287 286 287 287 285 287 290 291 290 291 287 284 286 287 290 294 293 295 286 282 281 282 290 295 299 297 295 295 300 299 300
304 305 306 308 308 308 297 294 298 295 287 285 289 287 288 287 286 285 287 291 293 290 287 286 280 280 284 284 287 293 292 289 285 285 280 282 292 298 302 302 291 300 304 303
304 305 306 307 308 308 299 299 297 297 288 291 292 288 287 291 290 286 284 287 288 290 284 277 279 280 287 280 282 284 286 286 282 282 282 292 296 299 301 291 290 297 303 304
305 306 307 307 308 308 302 299 297 296 292 293 294 294 291 291 291 286 285 286 286 286 281 283 285 285 286 285 287 286 285 285 288 288 283 285 297 297 290 294 297 298 298 304
305 306 307 308 308 309 305 296 297 301 295 293 297 298 298 297 295 291 289 289 291 288 286 288 288 286 288 286 283 291 285 288 288 289 290 298 298 296 298 298 297 298 298 300
305 306 307 308 308 309 307 298 299 299 295 291 288 290 296 300 299 300 287 289 293 291 291 292 291 286 289 283 285 287 290 293 290 290 296 296 297 299 299 301 299 300 301 301
305 306 307 307 308 308 305 299 298 299 296 287 287 296 294 300 300 298 297 293 292 293 293 292 289 285 292 287 288 288 291 293 289 290 295 296 298 297 298 300 301 301 302 302
306 306 306 306 306 307 302 298 298 299 293 284 286 293 296 297 298 297 296 293 290 292 291 287 285 289 291 292 292 289 294 291 288 287 294 294 295 297 299 300 299 301 301 302
306 306 307 306 307 306 295 290 297 299 299 292 283 290 294 297 298 299 298 294 294 294 291 290 289 291 291 286 285 293 296 298 297 294 299 298 299 300 301 301 301 303 302 303
305 306 307 307 307 296 292 291 296 302 299 289 287 286 294 298 298 297 296 295 291 291 292 288 287 288 290 289 284 292 295 297 297 299 300 296 299 296 300 301 304 305 304 305
305 305 307 307 307 304 295 298 302 301 295 292 287 285 290 297 293 292 292 289 288 288 291 288 286 287 287 284 290 292 294 296 298 298 300 299 299 299 301 302 302 303 303 304
304 306 307 301 296 293 296 308 303 297 293 284 287 286 284 297 295 294 290 290 286 288 285 288 288 283 281 289 290 291 292 293 295 298 300 298 297 298 299 299 301 302 304 305
305 300 296 289 297 308 306 297 293 291 292 293 289 294 286 293 293 291 290 289 287 284 286 290 287 286 292 294 293 293 294 295 296 295 295 297 299 298 297 297 299 302 305 308
294 291 291 297 303 297 290 285 285 286 285 293 292 293 290 296 289 288 289 285 286 281 286 286 286 286 290 294 294 296 296 295 295 296 297 298 301 297 298 297 300 302 305 307
294 296 300 298 292 288 285 280 285 285 282 290 290 290 290 293 294 287 287 283 284 280 290 285 284 289 294 295 295 297 297 297 296 296 296 297 298 302 301 298 300 302 305 307
302 298 294 286 285 279 281 282 283 283 289 290 289 287 289 288 291 288 286 275 281 287 281 284 287 292 294 296 297 297 298 298 299 298 298 298 298 299 301 302 302 301 302 305
292 288 279 280 280 280 285 285 285 289 289 290 288 287 284 287 284 287 283 281 282 274 273 281 289 292 294 296 297 298 298 299 299 299 299 298 298 298 300 302 304 301 301 305
292 286 279 282 288 288 289 290 289 290 290 288 286 287 287 280 281 286 279 279 272 276 279 286 290 292 293 293 295 298 299 299 299 300 299 299 299 299 299 301 302 303 304 303
294 289 286 288 287 288 287 288 288 290 289 289 287 282 282 280 281 275 277 276 269 278 284 289 291 291 292 293 296 297 299 300 300 301 301 301 301 300 299 301 301 303 304 306
290 287 291 289 288 287 289 289 289 290 288 283 285 281 280 283 277 273 284 279 282 286 290 291 292 291 292 294 297 298 299 300 300 301 302 302 303 303 300 298 300 302 304 304

GFSNW_sfc_thetae_006.txt.gz
Theta_e
308 308 308 308 308 306 300 293 280 295 302 289 287 282 286 291 288 290 288 288 286 284 286 285 284 284 287 292 291 286 291 285 284 288 292 296 294 291 289 286 283 287 286 287
308 308 308 308 308 306 298 289 288 294 299 282 282 286 285 288 287 287 286 285 286 287 285 282 286 287 292 292 290 288 290 284 281 284 288 291 290 292 293 288 287 286 285 287
307 307 308 308 307 306 293 288 281 285 289 290 286 283 282 283 289 288 288 286 286 285 285 287 286 286 290 293 292 298 291 284 284 283 285 289 287 291 292 289 284 286 290 290
305 307 308 308 307 305 292 285 282 286 282 280 285 285 282 282 283 288 288 285 286 285 283 284 285 288 290 291 294 293 287 281 286 287 291 291 291 291 291 289 291 287 289 291
305 305 307 307 307 303 290 285 287 287 287 288 285 283 280 282 284 286 285 284 286 285 283 285 283 287 288 287 291 289 287 281 285 285 291 293 290 291 292 292 292 292 292 292
305 305 306 307 307 302 295 296 296 291 287 285 283 283 284 284 287 287 289 287 285 283 286 290 290 291 292 292 289 288 285 284 282 279 286 289 285 291 291 292 293 293 290 296
304 305 306 307 307 306 300 297 295 289 283 286 285 286 287 285 286 285 288 288 284 288 292 292 291 291 291 293 292 292 287 286 285 279 285 279 290 297 295 294 296 296 295 297
304 305 306 306 307 307 300 299 296 291 283 287 287 287 287 287 288 287 286 288 290 289 288 284 282 285 287 289 291 293 293 290 283 279 280 287 293 294 292 292 293 295 297 301
305 306 306 306 307 307 300 299 299 295 287 284 290 287 289 286 286 287 286 289 291 289 285 283 274 279 284 283 287 292 292 290 285 282 279 280 289 294 299 300 289 295 296 296
305 306 307 307 308 308 301 297 296 296 289 290 289 287 287 290 289 287 285 287 288 288 281 272 274 279 287 280 281 283 285 286 280 281 278 289 294 296 299 288 287 296 296 296
304 305 307 307 308 309 303 299 295 297 291 290 292 292 289 291 291 287 289 286 287 286 281 283 284 285 286 284 287 286 285 283 286 286 285 285 297 295 289 293 296 297 297 297
304 305 306 307 308 309 305 296 296 301 294 292 294 296 297 294 294 292 292 286 289 291 287 287 287 285 286 286 282 291 285 288 286 289 288 296 298 297 300 300 296 297 297 299
305 305 307 307 308 308 306 299 300 298 293 290 287 289 293 297 297 299 291 287 291 291 295 291 290 284 288 281 284 287 290 293 289 289 292 293 296 300 300 299 297 299 300 300
305 306 306 307 306 306 306 299 298 297 294 288 287 296 294 299 300 298 297 294 294 292 294 291 289 287 292 286 289 287 288 291 289 289 293 294 297 298 299 300 299 300 301 302
305 306 306 306 306 306 302 296 299 297 293 287 287 293 297 299 299 298 298 296 294 292 290 285 285 290 291 292 289 287 291 289 288 287 294 293 294 298 300 299 299 299 300 301
305 305 306 306 306 306 294 289 295 301 300 293 285 291 295 297 301 299 299 296 294 295 293 290 289 292 290 286 284 292 294 296 295 293 298 298 298 300 301 300 299 300 301 302
304 305 305 306 306 299 291 290 298 302 300 292 287 285 295 296 299 298 296 296 292 292 293 289 286 287 289 285 283 291 293 294 296 299 299 296 298 297 300 299 301 303 302 304
304 304 306 307 306 304 295 297 304 302 296 293 286 285 289 296 292 293 293 289 290 291 291 288 285 287 286 281 290 292 293 294 295 297 299 299 301 300 299 300 301 300 300 303
303 305 307 300 294 292 294 307 304 296 293 283 288 286 284 293 294 294 293 287 283 289 286 288 288 282 282 289 290 291 292 292 293 296 296 299 299 299 301 301 299 299 301 302
303 299 295 287 295 305 305 296 291 291 293 294 290 293 287 292 293 290 288 288 285 283 288 292 288 286 292 293 294 295 295 296 295 292 292 294 294 296 298 300 299 299 300 302
292 291 290 295 302 294 288 284 284 284 283 289 292 291 286 296 289 288 288 285 286 281 285 287 285 285 288 295 296 298 298 297 297 297 296 296 296 296 296 298 302 301 301 302
291 294 297 299 291 286 285 279 283 284 282 287 287 288 289 293 292 286 285 283 283 280 288 286 285 289 294 296 297 298 298 298 298 299 298 297 297 298 297 297 299 302 303 303
300 297 294 286 285 278 281 280 280 280 287 288 287 285 287 289 288 285 281 275 280 282 276 282 287 292 293 294 295 295 298 300 300 300 301 300 300 300 299 298 299 300 302 304
292 287 279 282 281 282 282 284 285 288 287 288 287 285 283 285 282 287 278 280 276 269 270 275 286 292 292 293 294 294 295 299 300 300 301 301 300 300 300 300 300 300 301 302
290 284 278 281 287 288 288 289 288 289 289 287 284 285 285 279 280 282 276 275 269 270 274 280 287 291 291 291 292 293 295 298 299 301 300 301 301 301 301 302 301 301 301 302
292 286 284 286 286 286 288 288 288 290 288 287 285 281 280 279 277 274 271 274 268 276 281 286 288 290 290 291 292 294 296 297 300 299 301 301 301 301 302 304 302 301 301 301
289 285 289 287 286 287 287 289 289 290 288 283 283 281 280 282 275 271 282 276 279 283 287 288 289 289 290 292 293 295 296 297 297 299 301 301 302 302 301 301 302 302 301 302

GFSNW_sfc_thetae_009.txt.gz
Theta_e
306 307 308 308 308 306 302 296 288 300 304 290 288 285 287 290 289 292 289 289 287 285 286 284 284 284 287 293 292 288 294 292 289 292 298 300 298 296 296 290 288 292 292 292
305 306 307 307 308 306 300 290 290 300 301 283 284 286 286 288 288 288 288 286 288 289 286 282 286 287 292 293 290 288 293 290 287 290 294 297 295 297 298 298 297 291 287 293
306 305 306 307 307 306 299 292 286 292 295 292 285 283 284 284 290 289 290 288 289 288 286 288 285 287 291 293 292 296 294 289 289 287 291 295 292 294 297 297 292 292 292 295
305 305 305 306 306 305 298 292 287 290 284 286 286 285 285 283 284 289 290 287 287 285 283 285 285 287 289 292 293 293 292 286 288 290 292 293 294 294 294 293 295 291 295 296
305 305 306 306 306 303 298 290 289 292 288 289 286 286 284 284 286 286 285 286 288 287 283 285 283 287 287 287 292 290 293 286 289 289 292 293 292 295 295 295 295 295 296 297
305 305 306 307 307 305 297 298 298 292 288 286 284 285 285 285 288 289 290 289 287 286 288 290 291 292 291 291 290 290 289 289 287 286 291 292 289 294 296 296 297 297 293 299
304 305 306 307 307 306 301 299 296 289 284 287 286 287 288 288 288 286 289 290 288 290 295 295 293 292 291 291 291 294 289 288 288 287 290 284 295 300 301 298 298 299 300 303
304 305 306 307 308 307 303 302 296 291 285 287 287 288 288 289 290 289 289 291 293 296 293 287 285 287 288 289 292 292 293 290 286 286 289 294 295 296 295 297 295 299 299 301
305 305 306 307 308 308 303 302 302 295 288 288 290 287 289 286 286 289 290 294 296 295 290 287 280 279 284 284 288 292 292 292 287 288 287 286 292 297 300 303 294 300 300 301
305 304 306 306 308 308 306 302 302 297 290 292 292 287 287 291 290 288 291 292 292 294 288 283 282 282 288 282 282 285 288 288 284 287 287 290 296 299 301 294 293 300 301 302
305 305 306 307 308 308 305 303 301 298 292 293 295 294 292 292 291 287 291 290 292 291 285 285 285 285 287 285 288 287 287 287 286 288 287 285 299 297 293 296 301 301 302 303
304 305 306 307 308 308 307 300 301 301 295 293 299 298 300 297 296 292 293 291 291 293 288 288 288 286 286 285 283 290 285 288 287 288 289 297 300 298 301 301 300 301 302 304
304 305 305 306 307 307 307 303 302 299 293 294 295 293 298 301 300 302 290 293 294 295 296 292 290 285 289 284 286 288 291 294 290 290 293 295 298 300 301 301 301 303 303 304
304 305 305 305 307 307 306 301 303 299 294 289 291 299 298 301 302 300 298 296 297 296 296 292 290 287 292 289 289 289 293 294 291 290 294 296 298 299 299 300 302 302 303 304
305 305 305 305 306 306 305 304 304 304 296 290 292 299 300 302 302 300 299 297 295 294 290 291 290 293 291 293 293 289 294 292 290 289 294 294 295 299 301 299 300 302 302 303
304 304 304 305 305 306 302 297 300 302 300 293 288 298 297 300 301 300 299 297 296 295 289 292 295 296 294 289 288 293 295 296 298 295 299 299 299 301 301 299 299 303 304 304
304 303 304 305 307 303 298 297 301 302 302 293 289 290 297 300 301 299 298 298 297 296 295 294 294 294 294 292 287 292 295 296 296 299 300 298 299 298 302 302 303 304 304 305
303 303 305 307 306 304 302 305 304 304 299 297 288 289 294 299 294 294 298 295 295 295 294 295 292 294 294 289 293 294 294 296 296 297 298 299 300 302 303 303 303 302 302 303
303 303 305 304 300 298 301 305 306 303 298 292 291 288 287 297 297 296 296 295 291 296 291 291 292 290 287 289 290 292 294 294 294 297 298 299 298 299 300 301 301 301 303 304
301 302 299 297 299 304 307 301 297 295 297 295 291 296 290 295 294 292 291 292 288 287 289 293 287 287 291 293 294 295 297 298 298 296 296 297 297 298 299 299 300 301 302 305
294 291 294 298 302 300 296 293 291 292 291 295 295 296 293 297 291 289 291 287 288 284 288 288 288 287 292 298 298 299 300 299 299 299 300 301 300 299 299 300 301 301 301 302
294 294 297 297 296 293 290 288 290 290 290 294 294 294 295 295 296 290 290 286 288 283 290 288 285 291 296 297 297 298 299 300 301 302 301 302 302 302 302 302 302 302 303 303
300 295 293 292 291 286 285 284 287 288 293 295 295 292 296 293 294 289 288 284 284 289 287 286 290 295 296 297 298 299 302 301 302 301 302 302 302 304 304 303 304 305 304 304
292 290 286 286 286 288 290 291 292 295 294 294 294 293 294 294 290 290 284 287 286 283 283 285 293 296 297 298 299 299 300 302 301 301 302 302 301 302 304 304 305 305 304 305
291 291 286 288 292 292 293 295 294 296 296 294 292 292 293 290 287 289 285 282 281 283 286 292 297 298 298 298 299 300 301 301 301 302 301 301 302 302 302 303 304 305 305 304
292 292 290 292 290 291 292 293 294 297 294 293 293 290 288 287 287 283 283 282 282 288 289 297 297 297 298 299 299 300 301 302 302 303 303 303 303 302 302 303 304 302 303 303
293 293 295 293 292 292 293 294 295 297 295 292 291 288 286 288 285 283 284 285 291 295 297 298 298 298 298 299 299 301 301 301 302 303 303 301 302 303 302 300 301 302 303 305

GFSNW_sfc_thetae_015.txt.gz
Theta_e
306 307 307 307 307 305 306 305 296 307 312 296 297 290 292 293 293 294 293 292 291 289 289 288 288 288 291 295 296 293 298 294 291 295 302 303 302 301 302 297 297 299 299 299
306 306 307 307 307 306 305 300 301 308 306 290 290 294 292 293 292 292 291 290 293 294 290 286 290 291 295 295 294 293 296 293 287 293 298 301 300 302 304 304 305 298 296 299
306 306 306 307 307 306 305 301 295 300 304 296 291 290 291 290 295 293 293 292 293 291 289 291 289 290 293 295 294 297 296 294 292 289 294 299 297 300 303 303 299 299 299 302
306 305 306 307 307 307 305 302 296 297 292 293 290 291 291 289 288 293 294 292 292 290 287 289 289 291 292 293 295 294 294 290 293 293 297 299 299 299 301 301 302 299 302 302
306 306 306 306 307 306 304 296 294 298 294 294 290 292 290 289 290 291 290 290 292 292 289 289 288 290 291 290 294 294 296 290 292 289 295 298 298 300 301 302 303 303 303 303
306 307 307 307 307 307 304 304 302 297 293 292 290 291 290 290 292 294 294 292 291 292 293 296 297 297 296 295 292 292 292 291 291 285 294 296 294 299 300 302 304 304 300 304
305 306 307 307 308 307 307 305 302 295 290 293 292 292 292 292 292 290 295 296 293 297 302 300 300 298 297 296 295 295 291 290 291 288 292 286 298 305 305 303 305 307 307 307
305 305 307 307 308 308 307 310 302 296 290 293 293 292 293 295 295 293 295 297 300 303 298 292 291 291 291 293 295 295 296 292 289 287 289 296 298 303 303 302 302 308 306 308
304 305 306 307 307 308 307 309 309 301 292 294 296 293 293 290 290 294 296 301 304 301 296 291 285 285 285 287 290 298 297 297 289 291 287 285 297 304 308 309 299 308 309 309
304 305 306 306 307 308 308 307 312 302 293 298 297 293 292 295 294 289 294 297 298 301 292 287 286 285 291 286 285 287 288 290 287 291 292 296 302 307 308 297 299 309 310 311
304 304 305 306 306 307 307 306 312 302 296 299 301 299 295 296 295 289 295 294 297 295 289 288 287 287 289 289 290 288 288 290 291 293 289 288 304 305 301 305 310 310 311 311
304 304 305 305 306 307 307 303 310 308 298 299 305 306 305 302 301 295 293 294 294 296 291 292 290 288 290 288 285 293 288 290 289 289 288 298 303 302 306 309 308 309 310 312
304 304 305 305 305 305 306 306 306 303 298 300 301 300 306 309 306 305 291 296 296 295 297 294 293 287 291 286 288 289 292 296 292 292 295 298 302 303 305 307 308 310 311 312
305 305 305 305 305 305 305 304 308 304 300 292 300 308 305 310 308 304 300 296 297 297 297 294 295 292 297 290 290 289 292 294 292 292 295 299 302 303 304 307 309 309 311 312
306 306 305 305 304 305 305 306 308 308 301 295 299 306 307 307 306 305 302 297 296 296 295 294 295 298 297 295 296 291 296 292 291 290 296 296 299 304 306 306 307 308 308 310
305 306 305 305 305 304 304 302 310 311 307 295 293 306 303 306 307 304 305 305 299 299 299 298 301 301 297 294 291 295 298 299 300 297 302 301 303 305 307 306 307 309 308 311
305 305 305 304 306 309 306 303 306 309 308 296 295 298 303 306 305 306 301 306 303 301 301 299 298 297 299 295 291 297 299 300 301 302 303 301 302 302 307 307 308 309 310 311
305 304 304 306 307 306 306 309 307 309 304 301 293 296 300 308 300 299 302 302 304 303 302 300 297 300 301 292 296 298 299 300 300 300 302 303 306 306 307 308 308 308 308 309
304 304 304 307 307 304 305 307 306 309 304 295 294 294 293 304 300 301 302 301 297 304 300 300 298 296 292 295 296 297 299 298 298 303 303 303 302 305 305 306 307 306 307 308
304 305 306 303 305 305 307 305 299 298 301 300 297 301 297 302 300 295 297 300 295 294 299 302 298 295 299 300 301 302 302 302 303 301 301 302 301 301 304 306 307 307 307 309
307 303 302 304 305 305 302 296 294 296 294 300 301 301 298 306 295 295 297 295 298 292 295 296 295 292 297 301 301 304 304 304 304 306 304 303 303 303 302 303 305 307 308 308
299 299 301 303 299 298 294 295 299 297 295 300 298 300 302 303 303 295 296 290 295 290 301 296 291 296 299 300 300 301 304 302 302 303 304 302 305 305 304 304 305 305 306 308
303 296 293 295 298 290 290 288 293 294 299 300 301 298 303 302 300 296 293 287 289 300 294 293 296 300 300 302 302 302 303 303 302 302 304 304 304 305 305 303 304 305 304 305
298 295 289 293 292 294 296 296 297 301 302 300 301 299 299 300 295 296 289 294 297 289 287 288 297 300 300 302 302 302 301 302 301 302 304 304 304 306 305 305 306 304 303 305
297 297 287 293 298 300 301 301 301 303 303 302 299 299 300 298 294 296 290 289 286 290 291 299 301 302 303 303 304 304 303 303 303 304 304 304 303 305 304 307 306 304 304 303
298 297 295 300 299 298 300 300 299 303 303 304 301 295 294 292 295 290 289 288 287 291 300 301 302 302 303 305 305 305 305 305 304 303 304 305 303 303 304 305 306 306 305 302
294 296 300 300 300 301 302 302 301 304 300 296 296 291 290 298 292 290 296 292 298 300 300 304 304 304 303 304 304 304 304 304 305 305 304 304 306 305 303 304 304 306 306 303

GFSNW_sfc_thetae_021.txt.gz
Theta_e
307 307 308 307 307 305 303 300 293 304 306 291 292 285 290 293 292 295 292 291 289 288 288 286 286 286 289 295 295 288 291 287 283 286 293 295 294 291 290 286 286 290 288 290
307 307 307 307 307 306 300 295 298 306 303 285 286 291 291 292 292 292 291 290 291 291 288 284 288 289 294 296 294 290 291 284 280 283 288 293 291 295 293 291 291 288 287 290
306 306 307 307 307 306 302 297 291 295 297 295 290 287 288 289 295 293 292 291 292 290 287 289 287 288 293 296 295 297 294 286 283 280 286 290 288 290 293 292 287 289 292 294
306 307 307 307 307 306 303 298 292 294 286 289 291 292 291 289 288 293 294 290 290 288 284 286 286 289 291 294 296 294 291 285 287 289 291 291 289 289 290 288 292 290 293 295
306 306 306 307 307 306 302 296 293 295 292 293 291 292 290 289 290 291 289 288 291 290 286 288 285 288 288 287 293 292 293 286 288 286 291 291 287 290 290 290 292 295 296 297
305 306 306 307 307 306 299 300 301 296 293 290 289 289 290 291 293 293 294 292 291 289 292 294 294 293 292 292 289 288 287 287 285 283 290 289 284 288 290 292 294 296 293 299
306 306 306 307 307 306 302 300 300 294 288 290 290 292 293 291 292 290 293 294 291 295 299 298 296 295 294 294 292 291 287 286 287 285 287 277 289 301 297 294 297 304 302 307
307 306 306 306 307 307 302 302 300 295 289 292 292 292 292 294 294 292 293 295 297 299 297 289 287 287 288 291 292 291 291 289 285 283 283 287 291 297 296 295 300 307 305 307
307 307 307 306 306 306 303 300 304 299 293 290 295 293 293 290 289 290 292 297 298 296 290 289 283 280 285 285 289 295 294 292 288 286 281 281 291 296 300 301 295 308 308 307
307 307 308 307 306 305 303 299 302 300 292 296 296 292 291 296 293 290 291 293 292 296 286 284 283 283 289 284 284 286 286 287 285 285 284 287 295 296 299 293 295 309 309 309
306 307 308 308 307 306 303 299 302 298 295 296 299 300 295 295 294 290 293 290 291 290 283 285 285 285 287 287 288 287 286 285 286 287 284 282 295 297 296 300 305 309 308 310
305 307 307 307 308 307 305 297 302 309 299 297 303 302 303 301 300 295 295 291 291 293 288 288 288 286 288 286 282 291 285 289 285 288 287 296 298 299 304 306 305 306 307 309
306 306 307 307 308 308 305 300 300 300 297 297 297 298 305 307 305 305 292 294 295 293 296 291 290 285 291 284 285 289 291 295 287 291 293 295 299 301 303 305 305 306 307 308
306 305 306 307 308 306 305 298 300 301 299 290 294 305 301 308 307 304 301 299 296 296 295 292 291 288 295 289 289 290 292 293 291 291 296 297 300 301 302 304 306 305 306 308
305 305 306 307 306 306 304 302 302 303 298 292 294 300 306 306 306 303 303 300 296 292 292 292 291 295 295 294 293 289 294 292 289 289 297 296 298 302 304 302 304 306 306 307
306 306 306 307 307 305 301 299 303 305 305 296 288 299 300 305 306 305 302 300 297 296 295 294 295 300 294 289 288 295 296 298 298 296 299 300 301 302 304 303 305 306 307 307
306 306 306 306 306 303 298 299 304 307 308 297 291 293 303 306 304 303 302 304 298 297 295 294 294 294 298 292 287 295 296 298 300 300 300 298 300 299 304 305 305 307 308 309
305 305 306 306 305 304 301 306 308 308 303 300 291 291 296 306 298 297 302 299 299 299 297 297 294 296 294 288 294 297 298 300 301 301 302 300 301 302 303 305 304 303 305 307
304 305 305 304 303 303 305 309 308 307 302 293 294 289 289 304 298 299 299 299 292 299 294 294 294 291 286 292 296 296 299 298 299 301 301 302 300 301 301 302 302 302 303 304
305 304 302 299 302 309 308 302 299 298 298 298 292 296 292 299 298 295 294 297 292 290 293 297 291 289 296 298 299 299 300 301 299 296 297 299 301 301 300 300 302 303 303 303
303 299 298 302 308 303 301 295 293 294 292 296 296 296 293 303 294 292 295 292 293 287 292 290 289 288 295 298 299 300 302 300 298 300 301 302 301 300 300 301 302 302 303 302
298 297 300 301 298 296 292 292 295 294 292 297 296 298 299 300 300 293 293 288 291 287 297 291 288 293 298 300 300 301 300 300 300 301 302 302 303 302 301 301 301 301 302 301
302 296 293 292 293 287 287 285 292 293 298 300 300 296 299 298 298 293 291 286 285 295 288 288 293 298 299 300 300 300 301 301 301 302 303 302 303 303 302 301 302 301 300 301
295 293 286 288 287 291 292 293 296 301 301 298 298 297 296 297 293 294 287 291 291 284 283 285 293 297 299 301 302 301 299 300 301 302 303 302 302 302 303 303 303 301 299 300
294 295 287 290 295 298 299 301 300 302 301 298 297 298 298 294 293 294 291 286 283 284 284 292 298 300 302 301 302 301 300 301 301 301 301 302 302 300 302 302 302 301 301 299
295 294 291 296 295 296 299 301 299 303 301 301 299 295 292 291 292 288 286 285 281 286 293 298 299 301 300 301 301 302 302 302 300 300 303 303 301 300 301 301 302 302 300 299
293 291 296 295 295 295 297 299 300 304 300 296 297 291 290 295 289 287 291 287 290 296 298 300 302 302 300 300 303 305 304 302 301 302 302 302 302 303 301 299 300 301 302 301

GFSNW_sfc_thetae_024.txt.gz
Theta_e
307 307 307 307 307 306 300 293 289 301 301 288 286 281 289 293 291 295 292 291 288 286 287 285 285 285 289 295 293 287 290 285 281 284 291 294 290 287 287 280 280 285 284 286
307 307 307 307 307 306 300 291 291 302 298 280 280 287 290 292 291 292 291 289 290 290 286 283 287 289 294 295 293 289 289 282 277 279 285 292 288 291 291 288 286 284 283 285
306 306 307 307 307 306 301 291 287 290 290 289 284 285 287 288 295 293 293 291 291 288 286 288 286 287 292 295 294 297 293 284 281 275 282 287 286 289 290 288 283 285 286 290
307 306 306 307 306 306 298 291 287 289 282 287 288 288 289 288 288 293 293 290 289 287 284 285 285 288 289 293 296 293 291 283 286 286 288 289 289 289 289 287 288 284 289 291
307 307 306 307 306 306 296 288 289 294 291 290 287 288 286 288 290 290 288 287 290 289 286 288 285 288 287 286 291 290 292 282 287 284 288 289 287 290 290 289 290 289 290 291
308 307 307 306 307 303 291 293 294 294 292 290 288 285 289 289 292 292 294 291 289 288 291 294 294 293 292 290 287 286 287 285 284 280 288 289 283 288 289 290 293 293 288 294
308 308 307 307 307 305 296 293 297 292 286 289 289 291 292 290 292 290 293 293 288 293 297 296 296 293 292 292 290 291 286 283 286 280 284 277 289 297 298 293 294 296 301 301
307 308 308 308 307 306 296 294 296 294 286 290 291 291 290 292 293 291 291 293 295 296 293 289 285 286 288 291 293 291 289 286 283 280 278 286 292 293 294 294 296 305 303 307
306 307 308 308 308 306 298 294 294 295 290 286 293 290 292 289 290 290 293 296 296 293 289 288 281 278 284 284 288 294 293 289 285 284 280 277 289 293 298 298 292 306 306 305
306 307 307 308 308 308 302 297 294 295 290 293 294 291 290 294 293 289 292 293 290 290 283 279 281 282 289 281 284 286 286 287 283 282 277 286 291 293 297 290 295 304 307 307
306 307 307 307 308 308 304 297 297 294 290 291 294 295 293 293 292 289 293 289 287 288 283 283 282 285 287 286 288 286 285 284 284 286 283 281 295 295 294 298 304 305 306 308
305 306 307 307 307 308 308 297 297 299 294 292 297 298 299 298 298 294 295 291 290 292 285 286 287 285 288 286 281 291 285 287 285 286 285 291 296 299 302 303 301 303 305 308
305 305 306 306 307 308 307 299 300 296 290 292 292 294 300 302 301 303 294 291 291 289 294 289 289 285 289 284 286 288 291 293 285 288 293 295 298 301 303 303 303 304 306 308
305 305 305 306 306 307 306 300 299 296 293 290 291 301 298 303 304 302 300 294 292 292 294 291 290 287 294 287 289 289 291 293 290 290 295 297 299 301 302 303 305 305 307 306
305 306 306 306 306 307 305 301 301 299 293 291 292 297 300 301 302 300 299 295 295 292 289 290 290 295 294 294 292 287 293 291 288 288 296 296 297 302 304 303 303 304 304 305
303 304 304 305 306 306 300 293 300 301 298 294 288 294 297 300 302 300 299 297 296 294 291 288 293 297 295 287 287 293 294 295 296 294 298 299 301 302 304 303 304 305 305 305
304 304 304 305 305 303 295 296 300 305 304 296 287 288 299 302 301 299 298 298 297 296 296 290 290 294 297 288 284 293 294 298 298 299 299 297 300 299 303 304 304 305 305 305
304 304 304 304 305 303 298 300 304 305 301 298 288 288 291 301 294 293 297 294 297 294 292 293 291 294 291 285 295 294 296 299 300 300 300 299 300 301 301 303 304 302 301 302
303 304 305 301 298 299 303 310 308 307 301 292 291 285 282 301 296 297 294 293 288 294 291 290 291 287 284 290 293 294 297 295 299 299 301 300 299 299 300 300 301 300 300 301
305 302 299 298 300 309 308 301 297 297 297 297 291 291 286 295 296 295 289 291 288 284 289 294 287 285 294 296 297 297 298 298 295 293 295 296 297 298 298 298 299 300 300 300
296 293 294 297 304 300 298 294 291 292 290 291 291 291 288 296 292 289 290 283 287 283 287 289 281 280 292 296 296 298 300 298 298 298 298 298 300 298 298 298 299 298 298 298
296 296 299 298 294 294 291 289 293 292 288 292 291 292 292 295 296 288 288 282 285 283 295 290 282 290 295 297 300 297 298 298 298 299 299 299 299 298 299 299 297 297 298 298
300 296 293 291 291 285 287 281 286 288 293 295 295 293 295 294 295 289 286 282 280 288 281 284 288 296 297 296 298 297 297 299 299 300 300 300 300 300 301 301 298 298 298 298
293 291 285 286 285 288 287 288 290 296 296 296 294 292 292 293 289 290 284 287 286 279 277 282 290 295 298 298 298 297 296 298 298 299 302 301 300 298 300 301 299 298 297 298
289 290 284 285 290 291 293 295 294 297 299 296 294 294 292 287 289 291 287 284 278 277 277 285 293 297 300 300 299 297 297 297 299 298 300 301 300 298 298 299 298 298 298 298
291 289 286 289 288 290 291 292 293 298 300 300 295 290 288 287 287 284 284 280 278 280 284 293 296 298 300 300 299 299 299 298 297 299 301 300 300 298 298 298 299 298 298 297
289 287 291 289 289 289 292 293 293 298 299 293 295 289 287 289 283 281 284 283 285 289 292 295 297 297 299 300 300 301 301 298 298 299 299 299 301 299 298 296 296 297 297 297

GFSNW_sfc_thetae_027.txt.gz
Theta_e
308 307 307 307 307 305 301 290 287 300 298 287 283 280 287 293 291 295 292 291 287 286 286 284 284 285 289 293 292 286 289 283 280 283 289 291 289 286 286 278 279 281 281 282
307 308 307 306 307 305 300 291 290 299 296 278 278 285 289 291 291 291 290 289 291 289 285 282 286 288 292 292 291 287 288 281 277 278 284 289 286 289 288 287 284 281 279 282
308 307 307 306 306 306 300 293 285 288 288 288 283 285 286 287 294 292 293 290 291 288 285 287 284 286 291 293 293 297 293 282 280 275 280 285 283 288 289 286 280 283 284 286
309 308 307 307 306 305 296 290 285 288 282 284 287 288 286 286 287 292 292 289 289 288 285 285 284 287 289 292 295 292 288 282 283 285 286 287 286 286 288 286 287 283 286 287
308 309 308 308 306 304 294 287 286 290 286 290 289 289 287 287 288 289 288 288 289 288 285 286 285 288 287 287 289 287 292 282 285 283 287 287 286 287 288 289 289 288 289 288
307 308 308 308 307 301 290 290 291 292 287 285 284 286 289 288 291 291 293 291 290 287 289 293 293 293 292 291 288 286 286 284 281 278 285 285 282 286 288 289 290 289 285 292
307 306 308 308 308 303 299 293 291 289 281 285 284 288 289 290 289 289 292 292 290 293 297 295 293 291 290 291 291 291 285 285 284 279 283 274 287 296 296 292 291 292 293 295
306 306 307 308 308 307 299 298 294 289 282 286 287 289 288 290 292 290 291 293 295 295 291 288 286 286 288 290 290 289 290 284 280 278 279 284 289 293 292 291 291 301 302 303
306 306 307 307 308 308 302 298 298 293 288 282 290 286 289 288 288 290 291 294 294 290 285 286 280 279 285 283 287 293 292 288 283 281 278 277 289 293 296 296 287 301 303 303
304 305 306 307 307 308 305 298 298 294 288 288 287 286 286 291 292 289 289 292 288 289 285 279 280 282 288 281 283 285 285 284 281 280 279 285 291 293 296 287 288 301 304 302
304 305 305 306 307 307 305 299 299 295 290 291 292 291 289 291 292 288 291 288 287 286 281 282 281 283 287 286 288 285 284 283 283 283 281 280 293 290 292 297 301 303 302 302
303 304 305 306 306 307 307 299 300 301 293 292 295 295 297 298 296 292 294 290 289 289 286 284 286 284 287 286 281 291 284 285 284 285 284 289 292 292 295 303 301 303 303 304
303 304 306 306 306 306 305 301 300 297 292 290 289 290 296 298 297 300 288 288 289 287 294 289 289 284 289 283 285 288 290 292 285 287 291 290 295 301 302 304 303 305 306 309
302 303 304 305 306 306 306 301 300 297 293 286 287 298 295 301 300 300 298 293 291 290 293 290 288 286 293 288 289 289 291 293 289 288 293 296 299 301 302 303 304 306 308 308
302 303 303 304 305 305 304 303 302 301 292 287 287 294 297 299 299 298 299 293 290 292 290 290 288 292 294 294 291 289 293 290 289 287 295 295 297 301 303 303 302 304 304 305
302 302 303 303 304 305 301 291 299 301 298 291 288 292 294 298 299 300 297 296 293 294 292 291 290 297 295 288 285 291 294 294 295 294 298 299 300 302 304 303 303 304 303 304
301 302 303 304 304 302 296 291 299 302 300 292 288 284 294 300 299 299 298 296 296 296 295 292 289 292 295 287 283 291 294 296 298 298 298 297 298 297 303 304 304 303 304 304
302 303 304 305 305 303 298 300 303 304 299 298 288 286 288 300 294 294 299 296 297 297 295 291 289 290 289 284 291 294 295 297 299 298 299 298 299 300 300 301 302 300 299 300
303 304 306 302 298 297 302 309 307 304 300 291 290 286 280 298 298 297 293 297 291 293 290 289 289 285 282 288 292 293 295 294 296 297 299 298 298 298 298 297 298 297 298 298
304 300 298 297 298 305 308 301 297 297 298 297 291 290 284 291 293 291 288 289 287 288 290 293 286 283 292 294 295 295 296 297 295 294 295 297 297 296 296 297 297 297 297 298
292 289 291 297 302 299 297 293 291 289 289 291 289 289 287 292 286 289 289 283 285 285 288 288 280 281 290 295 296 296 297 297 298 298 296 296 297 297 297 296 296 297 297 297
291 292 297 298 293 291 290 289 292 290 287 290 289 289 289 290 293 288 286 283 284 282 290 287 281 287 293 295 297 295 296 297 297 298 297 298 298 298 298 296 296 295 296 296
296 295 292 291 290 284 285 281 285 288 293 295 294 292 292 292 291 286 283 281 280 286 279 282 285 292 295 296 297 295 296 298 298 299 298 299 298 299 298 296 296 296 296 296
291 289 284 285 283 284 285 287 290 296 297 296 295 293 293 291 288 288 283 286 283 276 276 280 288 293 295 296 297 296 296 297 298 298 299 299 297 297 297 297 297 296 295 295
287 289 282 284 288 289 291 295 295 297 299 298 293 293 293 287 289 288 285 283 278 278 277 281 291 295 299 299 299 297 298 297 296 298 299 299 297 296 295 296 296 296 295 294
288 287 286 287 286 287 288 290 290 295 296 298 297 292 288 288 287 284 283 279 276 280 283 289 293 295 298 298 300 299 297 297 296 297 299 298 297 296 296 297 297 296 295 293
287 286 290 288 287 288 288 289 289 290 290 291 293 286 286 289 285 281 281 280 283 286 289 293 295 295 297 299 300 300 300 297 296 299 297 297 298 297 295 294 294 295 294 294

GFSNW_sfc_thetae_030.txt.gz
Theta_e
307 307 307 308 307 305 302 290 287 299 296 286 280 278 286 292 290 294 292 290 288 285 285 283 283 283 287 292 291 286 288 283 280 283 287 290 286 284 284 278 278 279 278 279
308 307 307 307 307 305 300 292 291 298 294 277 277 284 287 290 290 290 290 289 290 290 286 282 285 287 292 292 289 286 287 281 277 278 284 287 284 287 285 284 283 278 277 280
309 308 307 308 307 306 300 293 284 288 287 286 282 286 286 286 293 291 292 289 291 288 285 287 284 285 290 292 291 296 291 281 279 274 279 284 282 285 286 285 279 280 281 284
308 308 308 308 307 306 295 288 284 288 280 281 283 288 287 286 287 292 292 288 289 288 283 285 284 287 288 291 293 289 286 281 281 283 285 286 285 285 286 284 286 282 284 285
308 307 307 308 308 304 292 282 284 287 283 285 283 285 283 287 288 288 288 287 289 289 286 286 284 287 288 287 291 288 288 281 283 282 285 286 284 285 285 286 286 286 288 287
308 307 307 307 308 302 294 293 289 287 284 282 279 281 286 286 289 290 292 291 289 288 289 293 292 292 291 291 288 286 286 285 281 276 284 283 278 282 284 285 289 288 284 289
308 307 307 307 308 304 299 295 293 288 281 282 282 285 286 285 288 287 291 291 290 293 296 293 293 291 291 290 291 291 287 285 281 276 277 269 282 291 293 289 290 291 291 293
305 305 306 307 308 308 300 298 294 290 284 285 286 286 287 286 288 289 291 291 294 294 289 286 284 283 288 289 290 290 290 286 281 274 275 282 285 291 291 289 289 295 292 294
304 304 305 305 307 307 304 299 299 293 287 285 289 285 285 282 286 289 291 294 293 290 283 284 279 276 284 283 286 288 290 288 283 280 276 274 286 292 295 295 285 301 302 302
304 304 305 305 306 307 305 300 299 295 288 290 287 287 283 287 287 287 291 292 289 288 281 280 280 279 287 281 283 284 284 284 280 280 278 281 291 292 293 285 286 301 302 301
303 303 304 305 306 306 304 302 300 296 290 291 293 293 289 288 289 286 290 287 285 285 282 282 281 281 284 285 287 284 284 282 281 282 279 277 291 289 288 295 301 302 303 304
303 303 303 304 306 306 305 296 301 301 293 292 297 297 298 296 294 291 292 291 291 289 285 282 285 284 285 286 281 290 283 285 283 284 284 290 291 290 294 295 295 303 303 305
302 302 303 303 304 305 305 299 301 297 293 292 287 289 294 296 296 297 289 288 292 292 294 289 288 284 288 283 285 286 289 290 284 285 289 290 293 295 302 303 303 305 306 308
301 302 303 304 304 305 305 300 302 298 294 286 287 295 293 298 296 294 296 293 294 294 294 289 288 286 292 288 289 289 291 292 289 288 292 294 294 298 301 302 304 303 304 306
300 301 302 302 303 303 303 301 302 301 294 287 287 292 294 297 297 296 296 295 293 292 290 289 288 289 292 294 291 287 293 291 288 288 295 294 296 300 303 299 302 303 303 303
300 301 301 302 303 304 300 293 300 302 299 289 285 292 293 295 298 298 297 296 295 294 292 291 291 292 294 288 284 289 292 295 296 294 298 299 300 302 304 301 302 303 302 303
301 302 302 303 303 302 296 293 299 302 300 290 288 285 292 299 296 299 297 296 296 295 295 293 287 291 296 289 282 290 293 295 297 299 298 296 298 297 301 302 302 303 302 302
303 303 304 304 306 303 298 301 303 302 296 296 289 284 287 298 293 293 298 295 296 296 295 292 289 288 288 284 289 293 294 296 297 297 299 297 299 298 298 299 300 299 298 299
301 303 305 301 298 296 300 307 307 303 297 291 288 283 280 293 295 298 295 296 292 295 293 289 290 284 282 287 290 291 293 293 294 297 297 297 297 296 296 296 297 297 297 298
300 296 297 296 297 304 304 302 298 295 296 296 291 292 283 289 288 288 289 291 289 287 289 292 285 282 289 292 294 293 295 295 296 293 292 294 295 295 294 295 296 296 297 298
288 285 290 294 300 297 295 291 291 290 287 290 290 290 286 291 285 285 292 287 284 284 288 289 281 281 288 294 294 295 295 296 297 297 295 295 295 296 294 294 295 295 295 296
289 290 294 295 293 288 286 286 291 288 285 290 290 290 289 289 291 287 289 283 283 282 288 286 281 286 291 294 295 294 296 296 297 297 296 296 298 297 295 295 294 295 295 295
291 293 290 290 289 283 283 280 285 288 294 296 296 293 294 290 292 286 283 281 280 285 278 281 284 290 294 294 295 294 294 297 297 298 298 298 297 297 296 295 295 294 294 294
286 287 283 284 282 283 282 284 287 295 296 295 295 293 293 293 290 286 283 284 283 276 276 280 285 291 294 295 296 295 295 296 297 297 298 297 296 295 295 295 295 294 292 293
283 285 280 282 286 286 290 294 293 295 296 296 291 294 294 290 290 288 283 282 277 277 277 280 288 293 296 296 296 295 295 296 298 298 297 296 296 295 295 295 294 294 293 292
285 284 283 286 286 285 286 287 287 291 290 290 293 291 289 287 288 284 284 279 275 278 281 286 290 293 296 296 297 297 298 296 295 297 298 296 296 295 294 295 294 293 292 291
284 283 286 286 285 285 286 287 288 288 288 286 288 286 285 290 285 283 283 279 282 285 287 289 292 294 295 297 299 299 298 297 295 296 296 296 296 296 294 292 292 292 292 291

GFSNW_sfc_thetae_033.txt.gz
Theta_e
309 309 308 307 307 305 303 298 294 303 302 293 289 288 289 292 292 295 292 292 290 288 288 286 286 285 288 294 293 288 292 288 282 284 291 293 291 288 289 284 283 285 284 286
309 309 308 307 308 306 301 293 294 303 300 288 288 289 289 290 290 291 291 290 291 292 288 284 288 288 293 294 292 290 292 286 280 282 288 291 287 289 290 290 289 285 282 286
310 309 308 307 307 306 302 295 290 295 295 292 288 286 287 286 293 292 293 291 292 290 286 290 287 287 291 294 293 296 295 288 284 280 283 287 285 288 289 288 285 285 286 288
310 309 308 307 307 306 299 292 290 291 286 288 287 288 288 286 287 292 293 290 289 289 285 285 286 289 290 293 294 294 292 284 286 287 288 288 287 286 288 286 288 284 288 289
309 309 307 308 307 306 296 289 288 292 288 288 288 287 287 287 289 288 287 288 290 290 286 287 285 288 288 288 292 291 292 285 287 283 287 287 284 287 288 288 288 288 289 289
307 305 306 307 307 305 296 294 293 292 288 287 286 287 287 287 288 290 293 291 289 288 291 293 294 294 293 291 289 288 288 287 284 280 285 285 281 286 287 288 290 290 286 291
305 305 305 306 306 306 300 297 295 288 286 286 286 288 288 287 289 287 290 292 290 294 297 297 296 294 293 291 289 291 288 287 286 281 283 274 286 293 293 291 294 296 294 294
305 305 305 305 306 307 300 299 295 290 285 288 288 288 288 289 290 289 291 294 296 298 294 289 287 288 290 290 289 290 290 287 283 279 279 283 286 291 290 289 289 297 294 296
304 304 304 304 306 306 304 300 300 293 287 288 290 288 288 285 287 288 292 296 300 296 291 287 281 282 284 284 287 288 289 289 284 282 277 276 288 293 294 294 286 299 299 297
303 303 303 304 305 307 305 302 301 295 288 291 291 287 287 290 289 286 290 292 293 295 287 282 282 282 287 283 283 285 285 285 281 280 279 284 291 293 294 284 290 299 302 304
302 302 303 303 303 305 306 303 302 297 291 293 294 295 290 290 289 285 292 290 292 290 286 283 284 284 286 285 287 285 284 284 283 283 280 279 290 289 287 293 295 296 298 306
301 302 302 303 304 304 305 299 303 303 294 293 299 299 300 298 296 291 292 292 292 292 289 288 287 285 287 286 283 291 284 285 284 285 285 291 292 287 291 293 291 294 298 307
300 301 301 302 303 304 304 301 303 299 293 293 294 294 299 299 299 301 290 294 296 293 296 291 289 285 289 285 286 288 289 290 284 285 290 291 295 296 300 303 301 304 306 307
299 300 300 301 301 302 303 300 304 299 295 287 292 299 297 302 300 299 299 297 297 296 295 290 289 288 293 289 290 290 293 293 289 288 292 294 296 297 300 301 303 303 306 305
299 300 301 301 302 303 303 303 302 302 294 288 290 297 299 300 299 297 297 295 293 294 291 290 289 293 291 294 294 291 295 291 288 287 294 294 295 300 301 300 301 302 301 301
301 301 302 302 302 303 300 295 301 302 300 291 286 297 297 300 301 297 295 294 294 295 292 292 295 296 294 290 288 295 298 298 298 296 301 300 299 300 303 300 301 302 300 302
303 302 302 303 303 302 296 295 300 303 301 291 288 291 297 299 300 299 298 298 297 296 296 294 295 295 296 293 290 296 298 298 299 302 301 296 297 296 299 301 301 302 301 301
302 302 302 303 305 302 298 302 304 302 296 294 288 290 293 301 298 296 300 296 296 297 296 297 294 297 296 291 296 297 299 299 299 300 301 300 299 299 298 301 301 299 298 299
301 300 304 303 301 297 300 305 307 302 297 290 290 288 287 298 300 300 298 299 292 298 294 294 294 293 291 295 296 296 298 297 297 299 300 300 298 297 297 298 298 298 297 298
298 297 297 297 299 302 303 300 296 294 295 294 291 294 290 295 295 295 295 295 293 290 294 297 293 294 297 298 300 300 300 300 300 297 296 297 296 295 295 296 297 297 297 298
292 287 290 295 298 299 298 292 292 291 288 293 294 294 291 297 291 291 297 293 292 288 292 293 292 291 296 300 301 301 302 302 301 301 300 299 297 295 295 295 296 297 297 296
293 292 295 294 294 292 289 289 291 289 287 294 292 292 292 295 296 294 292 291 291 286 293 291 286 295 298 300 300 301 303 303 301 302 300 299 298 297 296 295 295 296 295 297
295 291 289 289 290 284 283 281 287 289 294 296 295 292 294 294 295 293 291 288 288 293 289 287 293 297 299 301 301 301 303 303 302 301 301 300 299 298 296 295 295 295 295 295
287 287 282 285 283 285 287 289 290 295 294 294 295 294 292 295 291 292 288 291 291 286 284 286 294 298 300 301 301 301 301 303 302 301 301 300 299 297 296 295 296 295 293 293
284 286 280 284 289 291 292 294 294 295 297 296 291 294 294 292 290 289 289 287 285 287 288 293 298 299 301 301 302 302 303 303 303 302 301 300 299 297 296 296 296 295 294 293
285 284 282 287 287 289 291 291 291 295 295 294 295 294 290 289 291 288 288 287 285 291 293 297 298 299 302 302 303 303 304 304 304 303 302 301 300 298 296 296 296 295 294 293
285 284 289 287 287 287 290 292 291 294 291 290 294 288 288 291 287 287 289 288 293 295 296 298 298 300 302 304 304 303 304 303 303 304 302 302 301 300 297 295 295 295 295 294

GFSNW_sfc_thetae_036.txt.gz
Theta_e
310 310 309 308 308 306 304 304 298 309 309 296 299 292 291 293 294 297 295 295 293 291 291 289 289 288 291 296 296 290 294 291 285 288 293 295 291 290 288 285 284 288 287 291
310 310 309 308 307 307 302 297 300 310 306 292 290 292 291 293 293 294 292 291 293 295 289 286 290 291 295 296 295 292 295 289 283 285 291 294 290 291 290 291 291 287 285 291
310 309 308 308 307 307 303 297 294 301 301 298 291 290 290 290 294 294 295 293 295 292 290 293 288 290 293 295 295 297 296 291 287 283 286 290 287 289 292 291 286 287 289 292
308 307 306 307 307 306 303 297 295 296 292 295 293 293 291 289 289 294 295 292 291 290 286 289 289 291 291 294 296 296 294 287 289 290 291 291 289 289 290 289 290 287 289 291
306 306 306 307 306 306 303 295 292 295 295 294 292 291 290 288 290 291 290 289 292 292 289 289 286 290 291 288 293 292 293 287 290 287 290 290 288 290 290 290 291 291 292 291
305 304 305 306 306 306 298 299 296 292 293 292 289 289 290 290 292 293 294 292 291 290 293 295 298 296 296 294 289 289 289 287 286 284 289 288 285 289 290 291 292 292 289 294
304 305 304 305 306 306 302 299 297 290 288 291 289 290 290 289 290 289 295 295 293 297 302 301 300 300 298 297 294 292 288 288 289 285 285 277 289 294 294 293 294 296 296 297
304 304 304 304 306 306 306 301 296 290 286 291 290 290 289 290 291 291 294 295 299 303 299 293 292 293 292 293 293 291 291 288 286 282 283 286 288 293 292 289 292 299 299 300
304 303 303 304 305 305 306 306 302 295 289 291 294 290 292 287 288 291 294 300 303 300 293 289 284 285 287 287 290 291 291 291 286 285 279 277 288 294 296 296 287 301 301 301
302 303 303 303 303 304 306 304 308 297 289 294 295 290 289 291 290 287 290 293 296 300 291 285 284 285 290 285 285 286 286 286 283 283 281 285 292 294 294 284 291 301 302 301
301 302 302 303 303 304 304 302 310 300 293 294 296 298 292 292 291 286 292 292 296 295 291 289 288 285 289 286 289 287 285 285 286 286 283 280 293 290 287 296 299 298 300 300
301 301 301 302 302 303 304 300 306 306 296 295 302 301 302 299 298 293 292 293 293 296 292 291 294 289 290 288 284 294 286 287 286 286 286 294 296 291 292 293 291 297 300 301
300 300 300 301 301 301 302 301 304 300 295 294 297 299 304 306 302 306 292 296 299 296 297 291 292 288 293 287 288 290 294 291 286 286 293 293 296 298 298 301 302 302 302 303
300 300 302 302 302 302 302 301 305 301 296 289 297 305 302 307 306 304 304 303 303 301 297 292 290 289 296 291 293 291 295 294 289 290 295 297 296 298 298 301 303 303 305 306
301 302 303 302 302 302 303 302 302 302 295 289 292 300 305 305 305 303 303 301 298 294 292 290 289 295 295 295 296 294 298 293 290 290 297 295 295 299 298 298 301 302 301 303
302 303 302 301 301 302 301 295 303 304 301 292 288 302 301 304 306 304 300 300 297 294 293 292 295 301 294 291 292 298 300 300 302 297 301 300 299 299 299 298 301 302 301 302
301 301 301 301 302 303 297 297 301 304 302 293 289 292 303 301 303 302 300 301 299 296 295 294 296 298 296 293 291 299 300 301 302 302 301 297 298 296 300 300 301 302 302 303
302 302 300 302 305 302 298 303 304 303 297 296 288 290 298 305 301 299 303 297 296 296 296 302 299 298 297 292 298 299 300 302 301 301 302 300 299 299 299 299 301 300 299 301
301 299 301 305 303 298 301 305 306 303 297 290 290 288 291 303 300 305 302 302 293 299 294 296 297 297 293 298 298 299 300 300 300 301 301 300 298 297 299 297 298 299 298 301
299 299 301 296 300 300 303 300 296 293 294 294 289 297 291 299 300 299 301 301 296 293 297 302 296 296 302 302 302 303 302 302 301 298 296 297 297 297 298 297 296 299 299 299
297 293 293 299 302 302 300 295 293 291 289 292 294 295 292 300 294 296 300 298 298 291 296 296 294 296 301 303 302 304 304 304 304 303 302 300 299 298 298 297 297 297 298 299
295 295 296 296 295 294 291 290 293 292 290 296 295 294 294 295 302 297 299 293 297 289 300 295 292 300 302 303 302 304 305 304 303 303 301 300 299 299 299 299 299 296 297 299
298 293 289 290 292 285 284 283 288 290 297 296 295 293 296 295 297 296 296 291 292 299 293 292 297 302 303 304 303 304 305 305 304 303 302 301 300 299 299 298 299 298 295 297
290 288 284 287 286 286 289 289 291 295 295 295 296 296 292 294 292 293 291 295 296 289 288 290 298 303 303 304 304 304 303 304 303 303 302 302 300 299 299 299 298 299 296 297
287 288 282 287 292 293 293 295 294 296 297 295 293 294 296 287 286 290 291 289 288 291 292 298 300 304 305 304 304 304 305 305 304 304 303 302 301 299 298 298 299 298 297 295
289 287 285 289 289 290 291 293 292 295 295 295 295 292 292 290 292 289 289 288 289 294 299 301 303 306 306 306 306 305 305 306 305 305 304 304 302 299 299 299 299 298 297 296
286 289 291 290 288 289 291 292 292 296 292 290 293 289 288 294 288 289 294 293 296 298 301 304 305 305 307 306 307 307 307 307 307 306 306 305 304 301 300 298 298 298 298 297

GFSNW_sfc_thetae_042.txt.gz
Theta_e
310 309 308 307 307 305 306 307 298 313 312 297 301 295 297 297 296 299 297 297 295 292 293 291 291 290 294 299 297 292 296 292 286 288 294 296 295 291 291 284 283 287 286 286
309 307 307 306 306 306 304 303 303 313 309 296 295 298 298 299 295 296 295 294 296 297 292 289 293 294 299 299 297 294 295 289 283 285 290 294 291 292 293 293 291 286 283 285
308 307 306 306 306 305 305 304 298 303 304 303 298 296 295 295 300 296 297 295 296 294 292 294 291 293 297 298 297 297 296 290 285 281 285 288 285 288 292 291 286 286 287 289
308 306 306 306 305 305 306 304 298 300 293 295 298 297 295 294 294 298 298 295 294 293 290 291 290 294 295 298 298 298 292 287 290 290 290 291 290 289 291 289 290 286 287 288
307 306 306 306 306 304 306 297 296 298 295 299 297 296 294 293 295 295 293 292 294 295 291 292 290 293 294 294 297 295 295 288 290 288 291 290 289 290 291 291 290 290 290 289
305 305 305 305 306 305 302 303 303 296 294 297 295 295 294 293 294 295 297 295 293 293 295 298 299 300 300 299 295 291 290 290 288 284 289 289 285 290 291 292 293 292 287 293
303 303 303 304 306 305 303 302 301 295 290 294 293 295 295 293 294 291 295 296 294 298 303 302 301 301 301 300 298 296 291 290 289 285 287 278 290 297 296 293 295 296 296 297
302 302 302 303 303 305 302 304 303 297 290 293 294 295 294 296 297 294 295 298 301 304 299 294 292 294 295 296 298 295 296 290 286 283 283 287 290 294 292 290 290 296 298 300
302 302 302 303 303 304 303 304 308 301 292 293 295 294 295 291 291 294 297 300 304 302 296 291 286 285 290 289 292 298 296 293 287 285 280 278 289 293 296 297 286 298 299 299
301 302 302 302 302 303 302 301 310 303 293 296 299 293 292 295 293 290 295 296 297 302 294 289 289 288 293 288 287 289 290 287 284 284 283 287 292 295 295 283 288 297 297 298
301 301 301 301 302 301 301 300 306 303 296 298 300 300 296 296 295 289 294 294 295 295 291 291 291 290 292 291 293 292 288 285 285 287 283 281 297 293 287 293 295 295 296 297
301 301 301 302 303 303 303 297 304 308 300 299 304 303 304 302 301 296 296 294 293 295 293 293 293 290 292 291 286 297 289 290 287 288 288 297 298 295 297 298 294 294 296 303
301 301 301 303 304 304 303 300 302 301 297 297 300 300 306 310 307 309 294 296 298 299 299 295 293 287 294 287 291 293 296 296 288 291 294 296 297 299 300 298 296 299 302 306
300 301 301 303 304 303 302 299 302 301 299 291 296 308 304 308 309 307 305 303 303 303 300 295 291 288 296 292 294 294 297 297 295 293 296 297 297 298 298 298 300 300 302 304
301 301 302 302 302 303 302 301 302 303 296 291 293 300 306 310 306 306 305 304 302 299 294 292 290 293 295 297 298 295 300 296 294 290 297 294 295 299 301 298 298 300 301 302
301 301 302 302 302 301 300 296 307 305 303 291 286 302 301 305 307 305 303 303 301 299 295 293 295 299 296 293 292 299 302 302 302 297 301 299 299 300 300 298 299 301 301 303
300 302 302 301 302 301 298 297 300 305 303 292 288 294 303 306 305 306 304 305 300 298 294 292 293 296 299 294 291 299 302 302 302 302 300 297 298 297 301 299 300 302 302 303
300 302 302 302 303 303 300 305 304 306 299 295 288 292 298 306 301 301 305 300 300 297 294 296 295 299 297 293 300 301 302 302 301 300 299 297 299 300 300 299 299 298 298 300
301 302 302 304 302 300 303 306 306 306 298 290 290 288 291 306 303 302 302 303 292 299 292 294 299 297 293 299 301 301 301 300 300 300 298 298 298 298 299 298 298 297 297 299
301 302 302 298 301 303 305 301 297 295 295 293 289 296 291 297 297 298 301 300 296 292 296 301 297 296 303 302 303 304 303 302 302 297 295 295 296 297 298 296 297 297 297 298
299 295 295 300 305 299 297 295 292 291 287 292 294 295 293 301 294 295 302 298 299 292 297 296 295 296 301 303 305 305 305 304 303 301 299 299 299 298 299 296 296 297 297 297
295 295 299 301 299 296 291 292 295 294 291 296 294 296 298 300 303 298 300 295 297 290 300 295 292 298 302 304 303 304 305 304 303 301 298 299 299 300 300 298 296 297 296 297
301 297 294 295 294 286 287 286 289 289 293 294 294 294 299 297 296 294 295 293 293 301 295 292 296 301 304 305 305 304 305 304 303 301 299 300 299 300 301 299 297 298 296 297
295 290 284 288 289 291 292 291 292 296 297 295 295 295 297 298 293 290 287 295 298 291 289 290 293 303 303 305 305 305 304 304 303 302 300 299 299 299 300 300 299 297 294 295
291 291 283 289 293 293 293 294 293 296 297 295 293 294 295 296 291 291 289 288 289 292 291 297 301 306 305 305 306 304 305 304 303 303 300 299 299 300 299 300 300 298 296 294
293 291 288 292 290 290 292 292 291 294 295 295 295 293 291 291 289 287 289 288 286 288 293 299 304 305 305 307 307 306 305 305 304 304 302 301 300 299 300 300 300 299 298 296
289 290 294 293 291 290 290 292 292 295 292 288 290 287 286 291 287 287 287 285 289 296 298 302 302 302 305 306 306 307 307 305 305 305 304 302 302 302 301 300 300 300 299 298

GFSNW_sfc_thetae_045.txt.gz
Theta_e
309 308 307 307 306 305 303 301 295 308 307 292 296 292 295 298 297 298 296 296 294 291 291 288 288 288 293 298 297 291 292 287 282 285 292 294 292 290 287 281 280 283 281 281
309 308 307 307 306 305 299 297 299 309 306 289 289 295 295 297 296 295 293 293 295 294 289 285 291 292 297 298 295 292 291 285 280 282 286 291 287 289 288 288 286 281 279 281
308 307 306 306 305 305 301 299 293 300 299 297 293 292 292 291 299 297 297 294 295 292 289 291 290 290 295 298 296 299 295 288 283 279 283 286 285 287 289 288 280 283 284 286
306 306 306 305 305 305 301 299 295 296 289 290 292 293 294 292 291 297 296 292 291 290 285 288 287 290 292 295 298 297 293 286 287 288 290 290 288 288 289 286 287 283 286 287
304 304 305 305 305 304 302 293 291 293 290 294 293 293 292 291 292 292 290 290 292 291 286 288 286 289 290 289 294 290 294 286 288 285 290 290 288 289 289 290 290 289 290 289
303 303 304 305 305 304 298 299 299 295 291 292 289 289 291 292 292 294 295 293 290 289 291 294 295 295 294 293 291 290 286 286 285 279 289 288 281 288 290 291 292 290 286 291
303 303 303 303 304 304 298 300 298 293 287 289 289 291 293 291 291 291 294 294 291 295 301 298 296 295 295 295 296 292 287 287 286 281 284 275 287 295 294 291 292 294 293 295
302 302 302 302 302 303 298 299 299 294 287 290 291 292 292 293 293 291 292 295 299 300 295 289 286 288 292 294 295 292 293 289 283 278 277 285 289 291 290 288 287 295 293 295
302 302 302 302 302 302 299 299 305 298 291 288 293 291 293 288 289 289 293 296 299 296 292 290 281 278 287 285 290 296 295 293 287 282 277 272 287 293 296 293 283 295 293 292
301 302 302 302 302 302 298 296 300 299 291 293 294 290 289 293 292 289 291 292 292 297 291 286 281 282 291 280 282 285 286 287 282 283 280 284 291 295 295 280 285 293 293 293
301 301 302 302 302 302 299 296 300 297 293 293 296 296 294 293 292 288 291 289 292 290 288 289 287 283 287 284 289 284 285 283 283 285 281 276 295 293 287 292 295 295 295 295
301 301 302 301 303 304 304 295 301 302 297 294 299 297 298 297 296 294 294 292 291 292 290 290 288 284 286 285 277 292 282 288 285 286 285 295 296 295 298 297 296 296 296 297
301 301 301 301 303 304 303 300 299 297 294 293 294 295 300 306 302 303 293 295 296 295 298 293 291 284 287 279 283 288 292 294 287 288 292 294 297 298 297 299 297 298 299 300
300 301 301 301 302 303 302 297 298 296 294 288 290 301 298 302 301 304 303 300 300 299 298 293 291 287 291 288 288 288 292 295 293 291 293 295 297 296 298 299 299 298 300 302
301 301 302 302 302 302 300 298 299 299 293 288 289 295 300 302 304 302 303 301 297 297 293 291 289 293 292 292 292 290 297 294 289 287 294 294 293 297 300 298 297 299 300 300
301 301 301 302 302 301 297 294 303 304 301 291 285 295 296 300 304 302 302 301 299 298 294 292 294 296 293 289 288 293 299 301 300 294 298 297 296 298 300 298 298 300 300 301
301 301 301 301 302 300 294 294 300 305 302 292 287 288 299 303 304 302 299 302 298 297 295 292 292 293 294 291 288 295 300 301 299 297 296 294 295 294 299 299 299 301 300 301
301 301 301 301 303 302 297 303 304 304 298 295 287 287 292 303 299 297 303 299 298 296 294 294 292 293 295 290 295 300 301 301 298 296 297 296 297 299 298 298 299 297 297 299
301 301 302 301 300 299 302 307 307 306 298 289 289 286 284 300 298 300 299 300 291 297 291 292 294 293 290 295 298 299 300 297 295 297 296 296 296 298 297 296 297 295 296 297
301 301 298 296 300 307 306 300 296 294 295 293 288 292 288 295 293 293 294 298 292 290 293 296 292 292 300 301 302 301 301 299 297 293 292 294 294 297 296 295 297 296 296 296
295 290 292 297 305 298 294 293 291 290 287 290 290 293 291 300 293 292 296 292 295 289 294 292 290 291 297 302 302 304 301 300 298 296 295 296 295 297 296 295 296 296 296 296
293 293 295 298 297 295 291 290 294 291 288 293 292 294 296 298 300 294 295 292 293 288 297 293 289 295 299 301 303 302 301 300 298 297 296 297 298 298 297 296 296 295 296 296
299 293 292 294 292 285 286 285 289 288 294 295 295 292 296 296 296 292 291 289 288 297 289 289 291 297 301 303 303 302 302 302 301 297 297 298 298 299 297 296 297 295 295 295
294 291 281 287 288 290 289 287 289 293 294 292 292 291 293 296 292 291 286 291 292 287 286 287 292 299 302 304 304 302 301 303 300 297 298 298 298 297 299 297 296 295 293 293
291 291 281 288 291 292 292 292 291 293 293 291 290 290 291 290 289 289 288 286 285 286 285 291 297 300 302 301 304 302 303 303 300 298 297 298 298 298 297 298 297 296 295 294
292 290 287 291 290 289 289 290 289 293 292 292 292 290 288 288 288 286 286 284 283 285 287 296 298 299 302 301 303 305 304 304 301 299 299 299 299 297 297 297 297 296 296 294
289 289 293 292 291 289 290 291 291 294 291 287 288 285 282 289 284 283 285 283 285 291 293 297 298 299 300 301 303 304 304 305 303 301 300 299 300 300 299 295 296 296 297 296

GFSNW_sfc_thetae_048.txt.gz
Theta_e
308 307 306 306 306 304 299 294 292 305 301 289 290 288 293 296 295 298 294 293 292 290 291 288 287 287 292 296 295 289 290 285 281 285 292 293 289 286 286 279 280 284 282 280
306 305 305 306 305 304 298 292 294 303 300 283 285 291 294 295 294 295 293 291 292 292 287 283 289 291 296 296 294 290 290 282 280 280 285 289 286 289 289 286 284 280 278 279
306 305 305 305 305 304 296 293 288 292 293 290 287 287 290 291 297 295 295 292 292 289 287 288 286 288 293 294 295 300 294 287 282 278 283 288 283 287 289 285 278 280 281 283
304 304 304 305 304 304 296 291 287 288 284 286 287 287 290 289 289 294 292 289 291 287 283 285 285 288 290 293 296 294 292 286 287 288 289 289 288 287 288 286 285 281 284 285
303 303 304 304 304 303 295 288 286 288 286 289 288 288 286 289 291 290 289 287 290 288 283 286 284 287 286 286 290 293 293 286 289 286 289 288 286 288 289 289 288 288 288 286
303 303 303 303 304 301 290 293 292 292 287 286 284 284 287 289 289 291 293 290 288 287 289 292 292 292 292 290 288 288 287 286 284 280 287 287 282 288 289 290 292 289 284 288
303 303 303 302 303 301 291 292 293 286 281 286 286 288 289 289 290 287 291 290 287 293 297 295 293 292 292 292 291 292 288 285 287 281 282 276 287 294 292 289 291 291 291 292
302 302 302 302 302 302 292 292 290 291 282 287 288 290 289 289 289 288 289 292 293 294 292 287 284 285 288 292 292 289 290 287 283 280 277 283 288 291 290 288 287 293 291 291
302 302 302 302 302 302 293 291 296 297 290 283 292 287 289 285 284 286 290 293 294 291 289 289 281 276 286 285 289 293 292 292 286 283 277 272 285 293 295 293 283 294 292 292
302 302 302 302 302 302 295 291 292 289 289 289 289 288 284 288 289 288 288 289 289 292 287 284 281 281 290 277 280 283 286 287 283 282 280 283 291 295 295 279 283 294 293 294
301 302 302 302 302 303 301 292 293 292 290 290 292 292 288 289 289 286 287 289 290 286 283 288 285 281 285 281 285 281 280 282 281 284 281 275 294 291 285 291 294 294 294 296
301 301 301 302 302 302 302 291 296 296 290 289 295 295 296 294 294 290 291 291 290 291 285 289 287 283 284 283 278 288 280 286 285 286 284 294 294 291 295 297 295 296 296 297
301 301 302 302 302 302 301 296 293 291 287 288 288 289 294 297 297 299 289 290 295 293 296 291 291 282 284 279 280 284 288 291 287 288 292 292 294 297 298 297 297 299 298 297
301 301 302 302 302 302 302 296 296 293 291 283 285 295 294 298 298 299 298 297 298 298 296 293 290 287 291 285 286 286 289 293 289 288 293 294 296 297 296 298 299 298 298 299
301 301 302 302 302 302 299 296 295 294 288 284 285 292 294 297 297 299 299 297 296 295 292 291 289 292 291 290 291 288 295 294 290 289 296 293 293 294 298 297 298 298 298 299
301 301 302 302 301 302 293 288 300 298 296 290 285 289 293 297 300 299 297 299 297 296 294 293 293 295 292 288 286 292 297 299 300 296 296 296 294 296 298 298 298 299 299 300
301 301 301 301 301 296 291 290 295 301 301 292 286 284 291 296 302 300 297 299 297 297 295 293 293 293 294 290 286 292 299 301 301 296 295 293 295 293 298 298 298 300 300 300
301 301 301 301 302 300 296 296 302 301 296 295 286 284 287 296 293 293 302 297 297 296 295 294 292 294 293 288 293 299 299 300 296 295 296 295 295 298 298 298 298 296 296 297
302 301 302 298 296 295 298 307 305 303 296 289 288 284 282 293 290 292 294 298 290 297 291 292 294 291 287 293 296 299 300 297 294 296 295 294 294 296 297 296 296 294 295 296
302 299 295 295 299 308 305 299 295 294 294 293 286 291 288 292 293 289 287 292 292 288 292 295 290 290 298 299 301 301 298 296 295 291 291 292 294 296 295 295 295 295 295 296
292 288 288 292 299 293 290 287 290 290 287 290 289 289 289 294 290 291 292 287 290 288 291 291 290 290 295 299 301 302 297 297 295 295 294 294 296 295 295 295 296 295 295 294
292 291 293 291 291 289 287 285 292 289 288 291 290 289 290 291 293 290 291 289 290 285 294 291 287 290 295 300 302 300 299 297 295 295 295 297 297 297 296 296 295 294 294 295
295 292 289 289 287 280 285 282 283 283 288 289 288 286 289 289 294 291 290 287 284 291 287 288 287 294 300 302 303 300 300 299 295 295 296 297 298 298 297 295 295 294 294 294
291 289 277 284 285 286 283 283 284 287 286 286 285 285 284 288 286 290 285 289 288 285 282 284 288 290 298 301 302 302 302 298 297 296 296 296 297 297 297 296 296 295 293 293
290 287 277 284 288 287 286 286 285 287 287 285 284 284 284 282 281 288 287 285 283 284 282 286 289 294 299 299 301 302 302 301 296 296 295 296 296 296 296 297 297 296 294 294
290 287 284 286 285 283 284 284 283 286 286 286 285 285 284 285 285 284 282 281 279 283 286 291 292 293 297 299 301 303 303 303 297 296 296 297 296 295 295 295 296 296 296 295
289 285 288 285 285 283 284 285 287 288 286 282 283 282 279 287 282 280 283 280 283 288 289 291 292 292 293 296 299 301 303 303 304 297 296 296 297 297 295 293 295 296 296 295